Weather History for Big Bear City, CA

Change the Weather History Date:

Tuesday, May 8, 2012

  Actual Average (KBUO) Record (KBUO)
Temperature  
Mean Temperature 48 °F -  
Max Temperature 62 °F 73 °F 95 °F (2001)
Min Temperature 35 °F 49 °F 48 °F (1998)
Degree Days  
Heating Degree Days 16    
Moisture  
Dew Point 9 °F    
Average Humidity 20    
Maximum Humidity 36    
Minimum Humidity 10    
Precipitation  
Precipitation 0.00 in - - ()
Sea Level Pressure  
Sea Level Pressure 30.14 in    
Wind  
Wind Speed 6 mph (NE)    
Max Wind Speed 22 mph    
Max Gust Speed 37 mph    
Visibility 10 miles    
Events      
Averages and records for this station are not official NWS values.
T = Trace of Precipitation, MM = Missing Value Source: NWS Daily Summary

Daily Weather History Graph

Daily Weather History Graph

Search for Another Location

Airport:

Trip Planner

Search our weather history database for the weather conditions in past years. The results will help you decide how hot, cold, wet, or windy it might be!

Date:

Astronomy

May. 08, 2012 Rise Set
Actual Time 5:50 AM PDT 7:37 PM PDT
Civil Twilight 5:23 AM PDT 8:04 PM PDT
Nautical Twilight 4:50 AM PDT 8:38 PM PDT
Astronomical Twilight 4:15 AM PDT 9:13 PM PDT
Moon 10:48 PM PDT (5/8) 8:07 AM PDT (5/8)
Length of Visible Light 14h 41m
Length of Day
13h 47m
Waning Gibbous, 90% of the Moon is Illuminated
May 8
Waning Gibbous
May 12
Last Quarter
May 20
New
May 28
First Quarter
Jun 4
Full

Hourly Weather History & Observations

Time (PDT) Temp. Windchill Dew Point Humidity Pressure Visibility Wind Dir Wind Speed Gust Speed Precip Events Conditions
12:15 AM 46.4 °F 41.5 °F 5.0 °F 18% 30.15 in 10.0 mi ENE 10.4 mph - N/A   Clear
12:35 AM 50.0 °F - 5.0 °F 16% 30.15 in 10.0 mi Calm Calm - N/A   Clear
12:55 AM 48.2 °F - 5.0 °F 17% 30.14 in 10.0 mi Calm Calm - N/A   Clear
1:15 AM 46.4 °F 44.3 °F 8.6 °F 22% 30.14 in 10.0 mi North 4.6 mph - N/A   Clear
1:35 AM 48.2 °F - 8.6 °F 20% 30.12 in 10.0 mi NE 5.8 mph - N/A   Clear
1:55 AM 48.2 °F - 10.4 °F 22% 30.12 in 10.0 mi NNE 3.5 mph - N/A   Clear
2:35 AM 42.8 °F - 12.2 °F 29% 30.11 in 10.0 mi Calm Calm - N/A   Clear
2:55 AM 39.2 °F - 12.2 °F 33% 30.10 in 10.0 mi Calm Calm - N/A   Clear
3:15 AM 37.4 °F - 12.2 °F 36% 30.10 in 10.0 mi Calm Calm - N/A   Clear
3:35 AM 41.0 °F - 12.2 °F 31% 30.10 in 10.0 mi Calm Calm - N/A   Clear
3:55 AM 41.0 °F - 12.2 °F 31% 30.10 in 10.0 mi Calm Calm - N/A   Clear
4:15 AM 41.0 °F - 14.0 °F 33% 30.09 in 10.0 mi Calm Calm - N/A   Scattered Clouds
4:35 AM 46.4 °F 43.5 °F 8.6 °F 22% 30.09 in 10.0 mi NNW 5.8 mph - N/A   Scattered Clouds
4:55 AM 48.2 °F - 8.6 °F 20% 30.09 in 10.0 mi NW 4.6 mph - N/A   Scattered Clouds
5:15 AM 48.2 °F - 8.6 °F 20% 30.09 in 10.0 mi North 4.6 mph - N/A   Mostly Cloudy
5:55 AM 46.4 °F - 6.8 °F 20% 30.09 in 10.0 mi Calm Calm - N/A   Scattered Clouds
6:15 AM 46.4 °F 43.5 °F 6.8 °F 20% 30.09 in 10.0 mi North 5.8 mph - N/A   Scattered Clouds
6:35 AM 48.2 °F - 8.6 °F 20% 30.10 in 10.0 mi Calm Calm - N/A   Mostly Cloudy
6:55 AM 48.2 °F - 8.6 °F 20% 30.11 in 10.0 mi North 4.6 mph - N/A   Scattered Clouds
7:15 AM 50.0 °F - 8.6 °F 19% 30.11 in 10.0 mi North 8.1 mph - N/A   Clear
7:35 AM 50.0 °F - 8.6 °F 19% 30.11 in 10.0 mi North 8.1 mph - N/A   Clear
7:55 AM 50.0 °F - 8.6 °F 19% 30.11 in 10.0 mi North 8.1 mph - N/A   Clear
8:15 AM 50.0 °F - 8.6 °F 19% 30.12 in 10.0 mi North 6.9 mph 17.3 mph N/A   Clear
8:35 AM 51.8 °F - 10.4 °F 19% 30.12 in 10.0 mi North 10.4 mph - N/A   Clear
8:55 AM 51.8 °F - 10.4 °F 19% 30.12 in 10.0 mi NNW 13.8 mph 21.9 mph N/A   Clear
9:15 AM 51.8 °F - 10.4 °F 19% 30.13 in 10.0 mi North 11.5 mph 16.1 mph N/A   Clear
9:35 AM 53.6 °F - 10.4 °F 18% 30.13 in 10.0 mi NE 3.5 mph - N/A   Clear
9:55 AM 53.6 °F - 10.4 °F 18% 30.14 in 10.0 mi NNE 8.1 mph 21.9 mph N/A   Clear
10:15 AM 53.6 °F - 10.4 °F 18% 30.14 in 10.0 mi NNE 12.7 mph 23.0 mph N/A   Clear
10:35 AM 55.4 °F - 12.2 °F 18% 30.14 in 10.0 mi ENE 20.7 mph 28.8 mph N/A   Clear
10:55 AM 55.4 °F - 12.2 °F 18% 30.15 in 10.0 mi NE 9.2 mph 31.1 mph N/A   Clear
11:15 AM 55.4 °F - 12.2 °F 18% 30.15 in 10.0 mi NNE 9.2 mph 28.8 mph N/A   Clear
11:35 AM 55.4 °F - 14.0 °F 20% 30.15 in 10.0 mi ENE 19.6 mph 36.8 mph N/A   Clear
11:55 AM 55.4 °F - 12.2 °F 18% 30.15 in 10.0 mi NE 9.2 mph 27.6 mph N/A   Clear
12:15 PM 57.2 °F - 12.2 °F 17% 30.15 in 10.0 mi NNE 9.2 mph 29.9 mph N/A   Clear
12:35 PM 55.4 °F - 14.0 °F 20% 30.15 in 10.0 mi ENE 13.8 mph 19.6 mph N/A   Scattered Clouds
12:55 PM 57.2 °F - 12.2 °F 17% 30.15 in 10.0 mi NE 11.5 mph 27.6 mph N/A   Scattered Clouds
1:15 PM 59.0 °F - 10.4 °F 15% 30.15 in 10.0 mi NE 15.0 mph 26.5 mph N/A   Clear
1:35 PM 60.8 °F - 12.2 °F 15% 30.15 in 10.0 mi East 17.3 mph 27.6 mph N/A   Clear
1:55 PM 59.0 °F - 10.4 °F 15% 30.15 in 10.0 mi ENE 16.1 mph 31.1 mph N/A   Clear
2:15 PM 60.8 °F - 10.4 °F 14% 30.14 in 10.0 mi East 12.7 mph 31.1 mph N/A   Clear
2:35 PM 60.8 °F - 10.4 °F 14% 30.15 in 10.0 mi ENE 21.9 mph 28.8 mph N/A   Clear
2:55 PM 60.8 °F - 10.4 °F 14% 30.13 in 10.0 mi ENE 11.5 mph 24.2 mph N/A   Clear
3:15 PM 60.8 °F - 10.4 °F 14% 30.13 in 10.0 mi ENE 15.0 mph 24.2 mph N/A   Clear
3:35 PM 60.8 °F - 10.4 °F 14% 30.13 in 10.0 mi NE 16.1 mph 26.5 mph N/A   Clear
3:55 PM 62.6 °F - 8.6 °F 12% 30.13 in 10.0 mi NE 16.1 mph 26.5 mph N/A   Clear
4:15 PM 62.6 °F - 8.6 °F 12% 30.13 in 10.0 mi ENE 10.4 mph 18.4 mph N/A   Clear
4:35 PM 62.6 °F - 5.0 °F 10% 30.13 in 10.0 mi NE 17.3 mph 27.6 mph N/A   Clear
4:55 PM 62.6 °F - 5.0 °F 10% 30.13 in 10.0 mi NNE 11.5 mph 21.9 mph N/A   Clear
5:15 PM 62.6 °F - 5.0 °F 10% 30.14 in 10.0 mi ENE 15.0 mph 20.7 mph N/A   Clear
5:35 PM 62.6 °F - 5.0 °F 10% 30.13 in 10.0 mi NE 10.4 mph 19.6 mph N/A   Clear
5:55 PM 60.8 °F - 3.2 °F 10% 30.14 in 10.0 mi NE 11.5 mph 19.6 mph N/A   Clear
6:15 PM 60.8 °F - 3.2 °F 10% 30.14 in 10.0 mi East 6.9 mph 18.4 mph N/A   Clear
6:35 PM 60.8 °F - 3.2 °F 10% 30.14 in 10.0 mi NNE 8.1 mph - N/A   Clear
6:55 PM 60.8 °F - 3.2 °F 10% 30.14 in 10.0 mi ENE 5.8 mph - N/A   Clear
7:15 PM 59.0 °F - 3.2 °F 11% 30.14 in 10.0 mi NNE 3.5 mph - N/A   Clear
7:35 PM 55.4 °F - 5.0 °F 13% 30.15 in 10.0 mi Calm Calm - N/A   Clear
7:55 PM 53.6 °F - 5.0 °F 14% 30.16 in 10.0 mi NNE 3.5 mph - N/A   Clear
8:15 PM 51.8 °F - 5.0 °F 15% 30.16 in 10.0 mi Calm Calm - N/A   Clear
8:35 PM 46.4 °F - 12.2 °F 25% 30.17 in 10.0 mi Calm Calm - N/A   Clear
8:55 PM 44.6 °F - 12.2 °F 27% 30.17 in 10.0 mi Calm Calm - N/A   Clear
9:15 PM 42.8 °F - 12.2 °F 29% 30.18 in 10.0 mi Calm Calm - N/A   Clear
9:35 PM 41.0 °F - 12.2 °F 31% 30.19 in 10.0 mi Calm Calm - N/A   Clear
9:55 PM 41.0 °F - 10.4 °F 29% 30.19 in 10.0 mi Calm Calm - N/A   Clear
10:15 PM 37.4 °F - 10.4 °F 33% 30.20 in 10.0 mi Calm Calm - N/A   Clear
10:35 PM 37.4 °F - 10.4 °F 33% 30.20 in 10.0 mi Calm Calm - N/A   Clear
10:55 PM 37.4 °F - 10.4 °F 33% 30.20 in 10.0 mi Calm Calm - N/A   Clear
11:15 PM 37.4 °F - 10.4 °F 33% 30.20 in 10.0 mi Calm Calm - N/A   Clear
11:35 PM 35.6 °F - 10.4 °F 35% 30.19 in 10.0 mi Calm Calm - N/A   Clear
11:55 PM 35.6 °F - 10.4 °F 35% 30.19 in 10.0 mi Calm Calm - N/A   Clear